Regional Weather Roundup
Issued by NWS

Home | Current Version | Previous Version | Graphics & Text | Print | Product List | Glossary On
Versions: 1 2 3 4 5 6 7 8 9 10 11 12 13 14 15 16 17 18 19 20 21 22 23 24 25 26 27 28 29 30 31 32 33 34 35 36 37 38 39 40 41 42 43 44 45 46 47 48 49 50
000
ASUS43 KOAX 190902
RWRNE

WEATHER ROUNDUP FOR NEBRASKA
NATIONAL WEATHER SERVICE OMAHA NE
400 AM CDT SAT APR 19 2014

NOTES: SATELLITE DATA IS BEING USED TO AUGMENT CLOUD COVER ABOVE
       12000 FEET.
       "FAIR" INDICATES FEW OR NO CLOUDS BELOW 12,000 FEET WITH NO
       SIGNIFICANT WEATHER AND/OR OBSTRUCTIONS TO VISIBILITY.

  * THESE STATIONS DO NOT REPORT WEATHER SUCH AS RAIN...SNOW OR FOG.

NEZ001>004-019>022-054>056-191000-
NEBRASKA PANHANDLE

CITY           SKY/WX    TMP DP  RH WIND       PRES   REMARKS
SCOTTSBLUFF    CLOUDY    54  36  50 N9        29.87R
ALLIANCE       CLOUDY    47  36  65 CALM      29.86R
CHADRON        CLOUDY    52  39  61 NE20G26   29.91R
KIMBALL        CLOUDY    51  33  50 NW10      29.90R
SIDNEY         CLOUDY    53  39  59 NW12      29.87S
$$

NEZ057>060-069>072-079>082-191000-
SOUTHWEST NEBRASKA

CITY           SKY/WX    TMP DP  RH WIND       PRES   REMARKS
NORTH PLATTE   CLOUDY    54  43  66 S16       29.84F
IMPERIAL       MOCLDY    53  43  68 SE8       29.84F
LEXINGTON      CLOUDY    54  45  71 S21       29.90S
MCCOOK         MOCLDY    54  45  71 S9        29.88F
OGALLALA       CLOUDY    53  42  66 N5G21     29.87R
$$

NEZ005>010-023>029-035>040-094-191000-
NORTH CENTRAL NEBRASKA

CITY           SKY/WX    TMP DP  RH WIND       PRES   REMARKS
VALENTINE      CLOUDY    54  42  64 W12       29.87R
AINSWORTH      CLOUDY    58  43  56 SW12      29.87R
BROKEN BOW     CLOUDY    54  43  66 S22G32    29.88F
O`NEILL        MOCLDY    58  41  53 S18G26    29.86S
ORD            MOCLDY    56  42  59 S20G25    29.89F
THEDFORD       CLOUDY    58  42  54 SW9       29.88R
$$

NEZ041-046>049-061>064-073>077-083>087-191000-
SOUTH CENTRAL NEBRASKA

CITY           SKY/WX    TMP DP  RH WIND       PRES   REMARKS
GRAND ISLAND   MOCLDY    54  41  61 S20G29    29.95F
AURORA         MOCLDY    53  40  61 S20G25    29.97S
HASTINGS       PTCLDY    54  40  59 S13G22    29.96F
HEBRON         PTCLDY    55  39  56 S17G25    30.02F
HOLDREGE       CLOUDY    54  43  67 S17G24    29.92S
KEARNEY *      MOCLDY    54  43  66 S14G22    29.94F
YORK           PTCLDY    54  39  58 S18G24    29.99S
$$

NEZ011>018-030>034-042>045-191000-
NORTHEAST NEBRASKA

CITY           SKY/WX    TMP DP  RH WIND       PRES   REMARKS
NORFOLK        MOCLDY    56  39  53 S16G24    29.96R
ALBION         MOCLDY    54  40  58 S16       29.93F
BLAIR          CLEAR     55  41  57 S21       30.01F
COLUMBUS *     PTCLDY    54  37  54 S18G28    29.97S
FREMONT        CLEAR     55  40  58 S18G26    30.00S
TEKAMAH        CLEAR     55  41  59 S16       30.01F
$$

NEZ050>053-065>068-078-088>093-191000-
SOUTHEAST NEBRASKA

CITY           SKY/WX    TMP DP  RH WIND       PRES   REMARKS
LINCOLN        CLEAR     55  39  54 S16       30.03F
OMAHA EPPLEY   PTCLDY    54  40  59 S18       30.04F
BEATRICE       CLEAR     53  39  59 S14       30.04F
FALLS CITY     CLEAR     52  42  69 S13       30.10F
NEBRASKA CITY  CLEAR     52  41  66 S15       30.08F
PLATTSMOUTH    CLEAR     55  40  56 SE15G22   30.06S
$$

NEZ044-045-051>053-067-191000-
OMAHA AREA

CITY           SKY/WX    TMP DP  RH WIND       PRES   REMARKS
OMAHA EPPLEY   PTCLDY    54  40  59 S18       30.04F
BLAIR          CLEAR     55  41  57 S21       30.01F
FREMONT        CLEAR     55  40  58 S18G26    30.00S
MILLARD        CLEAR     56  41  57 S15G22    30.04F
OFFUTT AFB     CLEAR     55  42  63 SE15      30.04F
PLATTSMOUTH    CLEAR     55  40  56 SE15G22   30.06S
WAHOO          FAIR      51  40  63 S15G22    30.01F
$$



USA.gov is the U.S. government's official web portal to all federal, state and local government web resources and services.